EW7271 Weather Reports


time (UTC)temp
C
wind
direction
speed
KPH
gust
KPH
rain 1hr
cm
rain 24hr
cm
rain mn
cm
humidity
%
barometer
mb
20260510234759 23 254 0.0 1.6 0.00 0.00 0.00 55 1015.0
20260510234400 23 254 1.6 3.2 0.00 0.00 0.00 53 1014.9
20260510233559 23 254 0.0 3.2 0.00 0.00 0.00 53 1014.8
20260510233200 23 254 0.0 3.2 0.00 0.00 0.00 54 1014.8
20260510232800 23 254 1.6 3.2 0.00 0.00 0.00 58 1014.7
20260510232400 24 254 1.6 3.2 0.00 0.00 0.00 54 1014.7
20260510232000 24 255 1.6 1.6 0.00 0.00 0.00 52 1014.7
20260510231559 24 255 0.0 3.2 0.00 0.00 0.00 54 1014.7
20260510231200 25 255 0.0 3.2 0.00 0.00 0.00 53 1014.5
20260510230359 25 267 0.0 3.2 0.00 0.00 0.00 50 1014.5
20260510230004 25 265 0.0 4.8 0.00 0.00 0.00 45 1014.5
20260510225600 25 265 0.0 4.8 0.00 0.00 0.00 45 1014.5
20260510225201 25 271 1.6 4.8 0.00 0.00 0.00 46 1014.4
20260510224800 26 183 0.0 6.4 0.00 0.00 0.00 46 1014.4
20260510224400 26 134 3.2 6.4 0.00 0.00 0.00 43 1014.4
20260510224002 26 274 1.6 6.4 0.00 0.00 0.00 42 1014.4
20260510223600 26 223 3.2 6.4 0.00 0.00 0.00 44 1014.4
20260510223200 26 278 1.6 11.3 0.00 0.00 0.00 43 1014.5
20260510222801 26 279 6.4 11.3 0.00 0.00 0.00 44 1014.3
20260510222401 26 241 3.2 8.0 0.00 0.00 0.00 52 1014.3
20260510222002 26 279 4.8 8.0 0.00 0.00 0.00 44 1014.3
20260510221601 26 177 3.2 8.0 0.00 0.00 0.00 44 1014.2
20260510221200 26 281 1.6 4.8 0.00 0.00 0.00 49 1014.3
20260510220800 27 281 1.6 4.8 0.00 0.00 0.00 48 1014.2
20260510220000 26 258 1.6 4.8 0.00 0.00 0.00 49 1014.3
20260510215559 26 273 0.0 4.8 0.00 0.00 0.00 50 1014.2
20260510214759 25 268 3.2 4.8 0.00 0.00 0.00 51 1014.3
20260510214359 26 264 1.6 6.4 0.00 0.00 0.00 48 1014.4
20260510214000 26 227 3.2 9.7 0.00 0.00 0.00 48 1014.3
20260510213159 27 226 3.2 9.7 0.00 0.00 0.00 45 1014.3
20260510212759 27 277 4.8 14.5 0.00 0.00 0.00 44 1014.3
20260510212400 27 304 3.2 14.5 0.00 0.00 0.00 44 1014.3
20260510212000 27 275 11.3 11.3 0.00 0.00 0.00 45 1014.3
20260510210800 26 206 1.6 8.0 0.00 0.00 0.00 49 1014.3
20260510210359 26 283 0.0 8.0 0.00 0.00 0.00 51 1014.3
20260510205559 26 284 3.2 12.9 0.00 0.00 0.00 53 1014.2
20260510205159 27 258 1.6 12.9 0.00 0.00 0.00 48 1014.3
20260510204759 28 322 3.2 4.8 0.00 0.00 0.00 46 1014.3
20260510204359 27 271 0.0 6.4 0.00 0.00 0.00 48 1014.3
20260510203959 26 199 1.6 6.4 0.00 0.00 0.00 51 1014.3
20260510203600 27 302 4.8 8.0 0.00 0.00 0.00 52 1014.4
20260510203159 27 254 3.2 11.3 0.00 0.00 0.00 49 1014.3
20260510202800 28 241 4.8 11.3 0.00 0.00 0.00 45 1014.3
20260510202359 28 277 3.2 11.3 0.00 0.00 0.00 44 1014.4
20260510202002 28 275 1.6 6.4 0.00 0.00 0.00 48 1014.4
20260510201200 28 134 4.8 8.0 0.00 0.00 0.00 44 1014.3
20260510200759 27 138 3.2 8.0 0.00 0.00 0.00 45 1014.4
20260510200359 27 168 3.2 6.4 0.00 0.00 0.00 47 1014.3
20260510200005 26 175 3.2 6.4 0.00 0.00 0.00 53 1014.4
20260510195559 26 175 0.0 6.4 0.00 0.00 0.00 54 1014.5
20260510195200 27 175 3.2 6.4 0.00 0.00 0.00 52 1014.4
20260510194759 27 180 3.2 6.4 0.00 0.00 0.00 48 1014.5
20260510193959 26 220 1.6 3.2 0.00 0.00 0.00 56 1014.5
20260510193600 26 220 3.2 4.8 0.00 0.00 0.00 57 1014.7
20260510192759 27 288 1.6 11.3 0.00 0.00 0.00 52 1014.8
20260510192401 27 289 1.6 11.3 0.00 0.00 0.00 46 1014.7
20260510192000 28 336 6.4 12.9 0.00 0.00 0.00 50 1014.9
20260510191559 27 120 4.8 14.5 0.00 0.00 0.00 47 1014.9
20260510191200 28 292 8.0 14.5 0.00 0.00 0.00 49 1014.9
20260510190759 28 282 6.4 12.9 0.00 0.00 0.00 48 1015.1
20260510190359 27 342 6.4 12.9 0.00 0.00 0.00 49 1015.1
20260510190003 27 299 4.8 6.4 0.00 0.00 0.00 55 1015.1
20260510185559 26 300 3.2 3.2 0.00 0.00 0.00 55 1015.1
20260510185159 26 300 0.0 3.2 0.00 0.00 0.00 59 1015.2
20260510184759 26 301 0.0 4.8 0.00 0.00 0.00 50 1015.2
20260510184401 27 301 1.6 11.3 0.00 0.00 0.00 49 1015.2
20260510184000 27 84 1.6 12.9 0.00 0.00 0.00 49 1015.1
20260510183600 27 184 0.0 12.9 0.00 0.00 0.00 50 1015.0
20260510183201 27 203 3.2 12.9 0.00 0.00 0.00 55 1015.1
20260510182759 27 140 8.0 8.0 0.00 0.00 0.00 53 1015.2
20260510182359 26 209 1.6 8.0 0.00 0.00 0.00 53 1015.2
20260510182000 26 271 1.6 6.4 0.00 0.00 0.00 50 1015.5
20260510181600 27 272 3.2 6.4 0.00 0.00 0.00 53 1015.4
20260510181159 27 300 3.2 6.4 0.00 0.00 0.00 49 1015.4
20260510180800 27 263 3.2 12.9 0.00 0.00 0.00 52 1015.3
20260510180359 27 273 3.2 12.9 0.00 0.00 0.00 50 1015.3
20260510175959 27 138 6.4 12.9 0.00 0.00 0.00 51 1015.4
20260510175158 27 198 1.6 11.3 0.00 0.00 0.00 55 1015.3
20260510174758 27 210 1.6 16.1 0.00 0.00 0.00 55 1015.3
20260510174000 27 181 8.0 16.1 0.00 0.00 0.00 49 1015.2
20260510173559 27 333 1.6 11.3 0.00 0.00 0.00 49 1015.3
20260510173159 27 275 6.4 11.3 0.00 0.00 0.00 57 1015.3
20260510172800 27 286 3.2 11.3 0.00 0.00 0.00 49 1015.3
20260510171558 27 136 6.4 14.5 0.00 0.00 0.00 49 1015.5
20260510171158 27 82 8.0 16.1 0.00 0.00 0.00 51 1015.5
20260510170759 27 123 6.4 16.1 0.00 0.00 0.00 51 1015.5
20260510170358 27 152 8.0 12.9 0.00 0.00 0.00 54 1015.5
20260510170003 27 159 1.6 9.7 0.00 0.00 0.00 52 1015.5
20260510164800 26 304 0.0 0.0 0.00 0.00 0.00 52 1015.6
20260510164359 26 296 0.0 0.0 0.00 0.00 0.00 54 1015.6
20260510163600 26 10 0.0 0.0 0.00 0.00 0.00 52 1015.7
20260510163159 26 42 0.0 0.0 0.00 0.00 0.00 53 1015.7
20260510162759 26 22 0.0 0.0 0.00 0.00 0.00 59 1015.8
20260510162400 26 344 0.0 0.0 0.00 0.00 0.00 55 1015.8
20260510161959 26 180 0.0 0.0 0.00 0.00 0.00 55 1015.9
20260510161559 26 244 0.0 0.0 0.00 0.00 0.00 55 1015.9
20260510161200 26 307 0.0 0.0 0.00 0.00 0.00 53 1015.9
20260510160359 26 288 0.0 0.0 0.00 0.00 0.00 56 1016.0
20260510160003 25 284 0.0 0.0 0.00 0.00 0.00 58 1016.0
20260510155159 25 304 0.0 0.0 0.00 0.00 0.00 56 1016.1
20260510154759 25 313 0.0 0.0 0.00 0.00 0.00 56 1016.2
20260510154359 25 329 0.0 0.0 0.00 0.00 0.00 54 1016.2
20260510153959 26 355 0.0 0.0 0.00 0.00 0.00 57 1016.2
20260510153600 25 355 0.0 0.0 0.00 0.00 0.00 57 1016.1
20260510153159 25 70 0.0 0.0 0.00 0.00 0.00 61 1016.1
20260510152359 25 5 0.0 0.0 0.00 0.00 0.00 62 1016.0
20260510151559 25 288 0.0 0.0 0.00 0.00 0.00 65 1016.2
20260510151200 25 284 0.0 0.0 0.00 0.00 0.00 65 1016.3
20260510150359 25 299 0.0 0.0 0.00 0.00 0.00 67 1016.1
20260510150002 25 128 0.0 0.0 0.00 0.00 0.00 67 1016.1
20260510145559 24 80 0.0 0.0 0.00 0.00 0.00 68 1016.1
20260510145159 24 350 0.0 0.0 0.00 0.00 0.00 68 1016.0
20260510144759 24 98 0.0 0.0 0.00 0.00 0.00 69 1016.1
20260510144000 23 59 0.0 0.0 0.00 0.00 0.00 69 1015.9
20260510143600 23 223 0.0 0.0 0.00 0.00 0.00 71 1015.9
20260510143159 23 44 0.0 0.0 0.00 0.00 0.00 71 1016.0
20260510142759 23 326 0.0 0.0 0.00 0.00 0.00 70 1015.9
20260510142400 23 302 0.0 0.0 0.00 0.00 0.00 73 1016.0
20260510142000 23 295 0.0 0.0 0.00 0.00 0.00 72 1015.9
20260510141559 23 228 0.0 0.0 0.00 0.00 0.00 74 1016.0
20260510140800 22 282 0.0 0.0 0.00 0.00 0.00 77 1016.0
20260510140003 22 285 0.0 0.0 0.00 0.00 0.00 78 1016.0
20260510135159 22 360 0.0 0.0 0.00 0.00 0.00 80 1015.8
20260510134800 22 323 0.0 0.0 0.00 0.00 0.00 79 1015.8
20260510134400 21 302 0.0 0.0 0.00 0.00 0.00 79 1015.7
20260510134000 21 287 0.0 0.0 0.00 0.00 0.00 83 1015.7
20260510133600 21 315 0.0 0.0 0.00 0.00 0.00 81 1015.7
20260510132759 21 289 0.0 0.0 0.00 0.00 0.00 81 1015.7
20260510132400 21 315 0.0 0.0 0.00 0.00 0.00 84 1015.7
20260510131159 20 286 0.0 0.0 0.00 0.00 0.00 85 1015.7
20260510130759 20 234 0.0 0.0 0.00 0.00 0.00 85 1015.7
20260510130400 20 292 0.0 0.0 0.00 0.00 0.00 85 1015.7
20260510130002 20 348 0.0 0.0 0.00 0.00 0.00 87 1015.6
20260510125200 19 306 0.0 0.0 0.00 0.00 0.00 88 1015.7
20260510124758 19 273 0.0 0.0 0.00 0.00 0.00 88 1015.7
20260510124359 18 184 0.0 0.0 0.00 0.00 0.00 90 1015.6
20260510123959 18 178 0.0 0.0 0.00 0.00 0.00 91 1015.6
20260510123559 18 273 0.0 0.0 0.00 0.00 0.00 92 1015.6
20260510123158 18 274 0.0 0.0 0.00 0.00 0.00 93 1015.7
20260510122800 17 257 0.0 0.0 0.00 0.00 0.00 93 1015.6
20260510122400 17 304 0.0 0.0 0.00 0.00 0.00 94 1015.7
20260510121959 17 283 0.0 0.0 0.00 0.00 0.00 95 1015.6
20260510121600 17 283 0.0 0.0 0.00 0.00 0.00 95 1015.6
20260510120800 17 187 0.0 0.0 0.00 0.00 0.00 95 1015.6
20260510120359 16 178 0.0 0.0 0.00 0.00 0.00 95 1015.4
20260510115958 16 157 0.0 0.0 0.00 0.00 0.00 96 1015.2
20260510115158 16 157 0.0 0.0 0.00 0.00 0.00 95 1015.2
20260510114758 16 157 0.0 0.0 0.00 0.00 0.00 96 1015.1
20260510114359 16 157 0.0 0.0 0.00 0.00 0.00 96 1015.1
20260510113959 16 151 0.0 0.0 0.00 0.00 0.00 96 1014.9
20260510113559 16 151 0.0 0.0 0.00 0.00 0.00 96 1014.9
20260510113158 16 151 0.0 0.0 0.00 0.00 0.00 96 1014.9
20260510112800 16 151 0.0 0.0 0.00 0.00 0.00 96 1014.8
20260510112358 16 151 0.0 0.0 0.00 0.00 0.00 96 1014.6
20260510111959 15 151 0.0 0.0 0.00 0.00 0.00 96 1014.7
20260510111558 15 151 0.0 0.0 0.00 0.00 0.00 96 1014.7
20260510111157 15 151 0.0 0.0 0.00 0.00 0.00 96 1014.7
20260510110759 15 151 0.0 0.0 0.00 0.00 0.00 96 1014.8
20260510110359 15 151 0.0 0.0 0.00 0.00 0.00 96 1014.7
20260510105959 15 151 0.0 0.0 0.00 0.00 0.00 96 1014.7
20260510105558 15 151 0.0 0.0 0.00 0.00 0.00 96 1014.6
20260510105158 15 151 0.0 0.0 0.00 0.00 0.00 96 1014.5
20260510104758 15 151 0.0 0.0 0.00 0.00 0.00 96 1014.4
20260510104358 15 151 0.0 0.0 0.00 0.00 0.00 96 1014.4
20260510103958 15 246 0.0 0.0 0.00 0.00 0.00 96 1014.3
20260510103158 15 246 0.0 0.0 0.00 0.00 0.00 96 1014.2
20260510102758 15 246 0.0 0.0 0.00 0.00 0.00 96 1014.1
20260510102357 15 246 0.0 0.0 0.00 0.00 0.00 96 1014.2
20260510101958 15 246 0.0 0.0 0.00 0.00 0.00 96 1014.0
20260510101558 15 246 0.0 0.0 0.00 0.00 0.00 96 1014.0
20260510100757 15 246 0.0 0.0 0.00 0.00 0.00 96 1013.7
20260510100358 15 246 0.0 0.0 0.00 0.00 0.00 96 1013.7
20260510095959 15 246 0.0 0.0 0.00 0.00 0.00 96 1013.7
20260510095558 15 246 0.0 0.0 0.00 0.00 0.00 96 1013.5
20260510095158 15 246 0.0 0.0 0.00 0.00 0.00 96 1013.6
20260510094358 15 246 0.0 0.0 0.00 0.00 0.00 96 1013.5
20260510093958 15 246 0.0 0.0 0.00 0.00 0.00 96 1013.5
20260510093557 15 246 0.0 0.0 0.00 0.00 0.00 96 1013.5
20260510093157 15 246 0.0 0.0 0.00 0.00 0.00 96 1013.3
20260510092758 15 246 0.0 0.0 0.00 0.00 0.00 96 1013.3
20260510091959 15 246 0.0 0.0 0.00 0.00 0.00 95 1013.3
20260510091557 15 246 0.0 0.0 0.00 0.00 0.00 95 1013.3
20260510091158 15 246 0.0 0.0 0.00 0.00 0.00 95 1013.2
20260510090757 15 246 0.0 0.0 0.00 0.00 0.00 95 1013.2
20260510090358 15 246 0.0 0.0 0.00 0.00 0.00 95 1013.1
20260510090001 15 246 0.0 0.0 0.00 0.00 0.00 95 1013.1
20260510085559 15 246 0.0 0.0 0.00 0.00 0.00 95 1013.0
20260510085200 15 246 0.0 0.0 0.00 0.00 0.00 96 1013.0
20260510084759 15 246 0.0 0.0 0.00 0.00 0.00 95 1013.0
20260510084359 15 246 0.0 0.0 0.00 0.00 0.00 95 1013.0
20260510084000 15 246 0.0 0.0 0.00 0.00 0.00 96 1012.9
20260510083559 15 246 0.0 0.0 0.00 0.00 0.00 96 1013.0
20260510083200 15 246 0.0 0.0 0.00 0.00 0.00 96 1012.9
20260510082759 15 246 0.0 0.0 0.00 0.00 0.00 96 1012.8
20260510082359 15 246 0.0 0.0 0.00 0.00 0.00 95 1012.8
20260510081959 15 246 0.0 0.0 0.00 0.00 0.00 96 1012.8
20260510081559 15 246 0.0 0.0 0.00 0.00 0.00 95 1012.9
20260510081159 15 246 0.0 0.0 0.00 0.00 0.00 95 1012.8
20260510080759 15 246 0.0 0.0 0.00 0.00 0.00 95 1012.8
20260510080400 15 246 0.0 0.0 0.00 0.00 0.00 95 1012.8
20260510080000 15 246 0.0 0.0 0.00 0.00 0.00 96 1012.8
20260510075559 15 246 0.0 0.0 0.00 0.00 0.00 96 1012.7
20260510074758 15 246 0.0 0.0 0.00 0.00 0.00 95 1012.6
20260510074358 15 246 0.0 0.0 0.00 0.00 0.00 95 1012.7
20260510073558 15 246 0.0 0.0 0.00 0.00 0.00 95 1012.6
20260510072757 15 246 0.0 0.0 0.00 0.00 0.00 95 1012.6
20260510072358 15 246 0.0 0.0 0.00 0.00 0.00 95 1012.5
20260510071958 15 246 0.0 0.0 0.00 0.00 0.00 95 1012.6
20260510071157 15 246 0.0 0.0 0.00 0.00 0.00 95 1012.6
20260510070758 15 246 0.0 0.0 0.00 0.00 0.00 95 1012.6
20260510070357 15 246 0.0 0.0 0.00 0.00 0.00 95 1012.7
20260510065959 15 246 0.0 0.0 0.00 0.00 0.00 95 1012.7
20260510065158 15 246 0.0 0.0 0.00 0.00 0.00 95 1012.7
20260510063557 16 246 0.0 0.0 0.00 0.00 0.00 95 1012.6
20260510063159 16 246 0.0 0.0 0.00 0.00 0.00 95 1012.7
20260510062800 16 246 0.0 0.0 0.00 0.00 0.00 95 1012.6
20260510062357 16 246 0.0 0.0 0.00 0.00 0.00 95 1012.6
20260510061959 16 246 0.0 0.0 0.00 0.00 0.00 95 1012.6
20260510061559 16 246 0.0 0.0 0.00 0.00 0.00 95 1012.5
20260510061159 16 246 0.0 0.0 0.00 0.00 0.00 95 1012.4
20260510060758 16 246 0.0 0.0 0.00 0.00 0.00 95 1012.5
20260510060359 16 246 0.0 0.0 0.00 0.00 0.00 95 1012.6
20260510055958 16 246 0.0 0.0 0.00 0.00 0.00 95 1012.7
20260510055557 16 246 0.0 0.0 0.00 0.00 0.00 95 1012.7
20260510055200 16 246 0.0 0.0 0.00 0.00 0.00 95 1012.8
20260510054756 16 246 0.0 0.0 0.00 0.00 0.00 95 1012.7
20260510054357 16 246 0.0 0.0 0.00 0.00 0.00 95 1012.8
20260510053958 16 246 0.0 0.0 0.00 0.00 0.00 95 1012.8
20260510053557 16 246 0.0 0.0 0.00 0.00 0.00 95 1012.8
20260510053157 16 246 0.0 0.0 0.00 0.00 0.00 95 1013.0
20260510052757 16 246 0.0 0.0 0.00 0.00 0.00 95 1013.0
20260510051958 16 246 0.0 0.0 0.00 0.00 0.00 95 1013.2
20260510050759 16 246 0.0 0.0 0.00 0.00 0.00 95 1013.3
20260510050358 16 246 0.0 0.0 0.00 0.00 0.00 95 1013.2
20260510050004 16 246 0.0 0.0 0.00 0.00 0.00 95 1013.2
20260510045602 16 246 0.0 0.0 0.00 0.00 0.00 94 1013.3
20260510045200 16 246 0.0 0.0 0.00 0.00 0.00 94 1013.2
20260510044401 16 246 0.0 0.0 0.00 0.00 0.00 95 1013.3
20260510044001 16 246 0.0 0.0 0.00 0.00 0.00 94 1013.3
20260510043601 16 246 0.0 0.0 0.00 0.00 0.00 95 1013.3
20260510042802 16 246 0.0 0.0 0.00 0.00 0.00 94 1013.2
20260510042401 16 246 0.0 0.0 0.00 0.00 0.00 94 1013.2
20260510042001 16 246 0.0 0.0 0.00 0.00 0.00 94 1013.2
20260510041601 16 246 0.0 0.0 0.00 0.00 0.00 94 1013.2
20260510041200 16 246 0.0 0.0 0.00 0.00 0.00 94 1013.1
20260510040401 16 246 0.0 0.0 0.00 0.00 0.00 94 1013.0
20260510040004 16 246 0.0 0.0 0.00 0.00 0.00 94 1012.9
20260510035601 16 246 0.0 0.0 0.00 0.00 0.00 94 1012.9
20260510034801 16 246 0.0 0.0 0.00 0.00 0.00 94 1012.9
20260510034400 16 246 0.0 0.0 0.00 0.00 0.00 94 1012.9
20260510034002 16 246 0.0 0.0 0.00 0.00 0.00 94 1012.8
20260510033559 16 246 0.0 0.0 0.00 0.00 0.00 94 1012.9
20260510033201 16 246 0.0 0.0 0.00 0.00 0.00 94 1012.8
20260510032800 16 246 0.0 0.0 0.00 0.00 0.00 94 1012.8
20260510032401 16 246 0.0 0.0 0.00 0.00 0.00 94 1012.7
20260510032000 16 246 0.0 0.0 0.00 0.00 0.00 94 1012.7
20260510031559 16 246 0.0 0.0 0.00 0.00 0.00 94 1012.7
20260510030400 16 246 0.0 0.0 0.00 0.00 0.00 94 1012.7
20260510030001 16 245 0.0 0.0 0.00 0.00 0.00 94 1012.6
20260510025600 17 245 0.0 0.0 0.00 0.00 0.00 94 1012.6
20260510025200 17 245 0.0 0.0 0.00 0.00 0.00 94 1012.6
20260510024759 17 245 0.0 0.0 0.00 0.00 0.00 93 1012.5
20260510024001 17 245 0.0 0.0 0.00 0.00 0.00 93 1012.5
20260510023559 17 245 0.0 0.0 0.00 0.00 0.00 93 1012.4
20260510023200 17 245 0.0 0.0 0.00 0.00 0.00 93 1012.5
20260510022400 17 245 0.0 0.0 0.00 0.00 0.00 93 1012.5
20260510022000 17 245 0.0 0.0 0.00 0.00 0.00 93 1012.5
20260510021600 17 245 0.0 0.0 0.00 0.00 0.00 93 1012.4
20260510020800 17 245 0.0 0.0 0.00 0.00 0.00 93 1012.4
20260510020400 17 245 0.0 0.0 0.00 0.00 0.00 93 1012.5
20260510020001 17 245 0.0 0.0 0.00 0.00 0.00 92 1012.5
20260510015600 17 245 0.0 0.0 0.00 0.00 0.00 92 1012.5
20260510014800 17 245 0.0 0.0 0.00 0.00 0.00 92 1012.4
20260510014400 17 245 0.0 0.0 0.00 0.00 0.00 92 1012.3
20260510014000 17 245 0.0 0.0 0.00 0.00 0.00 92 1012.1
20260510013600 17 245 0.0 0.0 0.00 0.00 0.00 92 1012.1
20260510013200 17 245 0.0 0.0 0.00 0.00 0.00 91 1012.1
20260510012759 17 245 0.0 0.0 0.00 0.00 0.00 91 1012.0
20260510012400 17 245 0.0 0.0 0.00 0.00 0.00 91 1012.1
20260510011559 18 245 0.0 0.0 0.00 0.00 0.00 91 1011.9
20260510011200 18 245 0.0 0.0 0.00 0.00 0.00 91 1012.0
20260510010800 18 245 0.0 0.0 0.00 0.00 0.00 91 1012.1
20260510010400 18 245 0.0 0.0 0.00 0.00 0.00 91 1012.0
20260510010000 18 245 0.0 0.0 0.00 0.00 0.00 90 1012.0
20260510005200 18 245 0.0 0.0 0.00 0.00 0.00 90 1011.9
20260510004402 18 245 0.0 0.0 0.00 0.00 0.00 89 1011.8
20260510004001 18 245 0.0 0.0 0.00 0.00 0.00 89 1011.8
20260510003600 18 245 0.0 0.0 0.00 0.00 0.00 88 1011.8
20260510002400 19 245 0.0 0.0 0.00 0.00 0.00 87 1011.8
20260510002001 19 245 0.0 0.0 0.00 0.00 0.00 86 1011.9
20260510001600 19 245 0.0 0.0 0.00 0.00 0.00 86 1011.8
20260510001200 19 245 0.0 0.0 0.00 0.00 0.00 86 1011.9
20260510000759 19 245 0.0 0.0 0.00 0.00 0.00 85 1011.7
20260510000403 20 245 0.0 0.0 0.00 0.00 0.00 85 1011.7
20260510000002 20 245 0.0 0.0 0.00 0.00 0.00 84 1011.6
20260509235200 20 245 0.0 0.0 0.00 0.00 0.00 83 1011.5